START_TIME,STEP,MOV.,P11,t_acc.,P23,t_acc.,P27,t_acc.,A4,t_acc.
1980-11-15 03:00:11.680 ,3,0,0.,4.8,0.,4.8,0.,4.8,0.,4.8
1980-11-15 03:00:16.480 ,3,0,1.,4.8,0.,4.8,0.,4.8,0.,4.8
1980-11-15 03:00:21.280 ,3,0,0.,4.8,0.,4.8,0.,4.8,0.,4.8
1980-11-15 03:00:26.080 ,3,0,0.,4.8,0.,4.8,0.,4.8,0.,4.8
1980-11-15 03:00:30.880 ,3,0,0.,4.8,0.,4.8,0.,4.8,0.,4.8
1980-11-15 03:00:35.680 ,2,0,0.,4.8,0.,4.8,1.,4.8,0.,4.8
1980-11-15 03:00:40.480 ,2,0,0.,4.8,1.,4.8,0.,4.8,0.,4.8
1980-11-15 03:00:45.280 ,2,0,1.,4.8,0.,4.8,0.,4.8,0.,4.8
1980-11-15 03:00:50.080 ,2,0,1.,4.8,0.,4.8,0.,4.8,0.,4.8
1980-11-15 03:00:54.880 ,2,0,1.,4.8,0.,4.8,0.,4.8,0.,4.8
1980-11-15 03:00:59.680 ,2,0,1.,4.8,0.,4.8,0.,4.8,0.,4.8
1980-11-15 03:01:04.480 ,2,0,0.,4.8,0.,4.8,0.,4.8,0.,4.8
1980-11-15 03:01:09.280 ,2,0,0.,4.8,0.,4.8,0.,4.8,0.,4.8
1980-11-15 03:01:14.080 ,2,0,0.,4.8,0.,4.8,1.,4.8,0.,4.8
1980-11-15 03:01:18.880 ,2,0,0.,4.8,0.,4.8,0.,4.8,0.,4.8
1980-11-15 03:01:23.680 ,1,0,1.,4.8,0.,4.8,0.,4.8,0.,4.8
1980-11-15 03:01:28.480 ,1,0,0.,4.8,0.,4.8,0.,4.8,0.,4.8
1980-11-15 03:01:33.280 ,1,0,0.,4.8,0.,4.8,0.,4.8,0.,4.8
1980-11-15 03:01:38.080 ,1,0,0.,4.8,0.,4.8,0.,4.8,0.,4.8
1980-11-15 03:01:42.880 ,1,0,0.,4.8,0.,4.8,0.,4.8,0.,4.8
1980-11-15 03:01:47.680 ,1,0,0.,4.8,0.,4.8,0.,4.8,0.,4.8
1980-11-15 03:01:52.480 ,1,0,0.,4.8,0.,4.8,0.,4.8,0.,4.8
1980-11-15 03:01:57.280 ,1,0,0.,4.8,0.,4.8,0.,4.8,0.,4.8
1980-11-15 03:02:02.080 ,1,0,1.,4.8,0.,4.8,0.,4.8,0.,4.8
1980-11-15 03:02:06.880 ,1,0,2.,4.8,0.,4.8,0.,4.8,0.,4.8
1980-11-15 03:02:11.680 ,0,0,0.,4.8,0.,4.8,0.,4.8,0.,4.8
1980-11-15 03:02:16.480 ,0,0,1.,4.8,0.,4.8,0.,4.8,0.,4.8
1980-11-15 03:02:21.280 ,0,0,2.,4.8,0.,4.8,0.,4.8,0.,4.8
1980-11-15 03:02:26.080 ,0,0,0.,4.8,0.,4.8,0.,4.8,0.,4.8
1980-11-15 03:02:30.880 ,0,0,1.,4.8,0.,4.8,0.,4.8,0.,4.8
1980-11-15 03:02:35.680 ,0,0,0.,4.8,0.,4.8,0.,4.8,0.,4.8
1980-11-15 03:02:40.480 ,0,0,1.,4.8,0.,4.8,1.,4.8,0.,4.8
1980-11-15 03:02:45.280 ,0,0,2.,4.8,0.,4.8,0.,4.8,0.,4.8
1980-11-15 03:02:50.080 ,0,0,0.,4.8,0.,4.8,0.,4.8,0.,4.8
1980-11-15 03:02:54.880 ,0,0,0.,4.8,0.,4.8,0.,4.8,0.,4.8
1980-11-15 03:02:59.680 ,0,0,0.,4.8,0.,4.8,0.,4.8,0.,4.8
1980-11-15 03:03:04.480 ,0,0,2.,4.8,0.,4.8,0.,4.8,0.,4.8
1980-11-15 03:03:09.280 ,0,0,0.,4.8,0.,4.8,0.,4.8,0.,4.8
1980-11-15 03:03:14.080 ,0,0,0.,4.8,0.,4.8,0.,4.8,0.,4.8
1980-11-15 03:03:18.880 ,0,0,1.,4.8,0.,4.8,0.,4.8,0.,4.8
1980-11-15 03:03:23.680 ,0,0,1.,4.8,0.,4.8,1.,4.8,0.,4.8
1980-11-15 03:03:28.480 ,0,0,0.,4.8,0.,4.8,0.,4.8,0.,4.8
1980-11-15 03:03:33.280 ,0,0,0.,4.8,0.,4.8,0.,4.8,0.,4.8
1980-11-15 03:03:38.080 ,0,0,0.,4.8,0.,4.8,0.,4.8,0.,4.8
1980-11-15 03:03:42.880 ,0,0,3.,4.8,0.,4.8,0.,4.8,0.,4.8
1980-11-15 03:03:47.680 ,1,0,0.,4.8,0.,4.8,1.,4.8,0.,4.8
1980-11-15 03:03:52.480 ,1,0,0.,4.8,0.,4.8,1.,4.8,0.,4.8
1980-11-15 03:03:57.280 ,1,0,0.,4.8,0.,4.8,1.,4.8,0.,4.8
1980-11-15 03:04:02.080 ,1,0,0.,4.8,0.,4.8,0.,4.8,0.,4.8
1980-11-15 03:04:06.880 ,1,0,1.,4.8,0.,4.8,0.,4.8,0.,4.8
1980-11-15 03:04:11.680 ,1,0,0.,4.8,0.,4.8,0.,4.8,0.,4.8
1980-11-15 03:04:16.480 ,1,0,0.,4.8,0.,4.8,1.,4.8,0.,4.8
1980-11-15 03:04:21.280 ,1,0,0.,4.8,0.,4.8,1.,4.8,0.,4.8
1980-11-15 03:04:26.080 ,1,0,0.,4.8,0.,4.8,0.,4.8,0.,4.8
1980-11-15 03:04:30.880 ,1,0,0.,4.8,0.,4.8,0.,4.8,0.,4.8
1980-11-15 03:04:35.680 ,2,0,0.,4.8,0.,4.8,0.,4.8,0.,4.8
1980-11-15 03:04:40.480 ,2,0,0.,4.8,0.,4.8,0.,4.8,0.,4.8
1980-11-15 03:04:45.280 ,2,0,0.,4.8,0.,4.8,0.,4.8,0.,4.8
1980-11-15 03:04:50.080 ,2,0,0.,4.8,0.,4.8,0.,4.8,0.,4.8
1980-11-15 03:04:54.880 ,2,0,0.,4.8,0.,4.8,0.,4.8,0.,4.8
1980-11-15 03:04:59.680 ,2,0,0.,4.8,0.,4.8,0.,4.8,0.,4.8
1980-11-15 03:05:04.480 ,2,0,0.,4.8,0.,4.8,0.,4.8,0.,4.8
1980-11-15 03:05:09.280 ,2,0,0.,4.8,0.,4.8,0.,4.8,0.,4.8
1980-11-15 03:05:14.080 ,2,0,1.,4.8,0.,4.8,0.,4.8,0.,4.8
1980-11-15 03:05:18.880 ,2,0,0.,4.8,0.,4.8,0.,4.8,0.,4.8
1980-11-15 03:05:23.680 ,3,0,0.,4.8,0.,4.8,0.,4.8,0.,4.8
1980-11-15 03:05:28.480 ,3,0,0.,4.8,0.,4.8,0.,4.8,0.,4.8
1980-11-15 03:05:33.280 ,3,0,0.,4.8,0.,4.8,1.,4.8,0.,4.8
1980-11-15 03:05:38.080 ,3,0,0.,4.8,0.,4.8,0.,4.8,0.,4.8
1980-11-15 03:05:42.880 ,3,0,1.,4.8,0.,4.8,0.,4.8,0.,4.8
1980-11-15 03:05:47.680 ,3,0,0.,4.8,0.,4.8,0.,4.8,0.,4.8
1980-11-15 03:05:52.480 ,3,0,0.,4.8,0.,4.8,0.,4.8,0.,4.8
1980-11-15 03:05:57.280 ,3,0,0.,4.8,0.,4.8,0.,4.8,0.,4.8
1980-11-15 03:06:02.080 ,3,0,0.,4.8,0.,4.8,0.,4.8,0.,4.8
1980-11-15 03:06:06.880 ,3,0,0.,4.8,0.,4.8,1.,4.8,0.,4.8
1980-11-15 03:06:11.680 ,4,0,0.,4.8,0.,4.8,0.,4.8,0.,4.8
1980-11-15 03:06:16.480 ,4,0,0.,4.8,0.,4.8,0.,4.8,0.,4.8
1980-11-15 03:06:21.280 ,4,0,0.,4.8,0.,4.8,0.,4.8,0.,4.8
1980-11-15 03:06:26.080 ,4,0,0.,4.8,0.,4.8,0.,4.8,0.,4.8
1980-11-15 03:06:30.880 ,4,0,0.,4.8,0.,4.8,0.,4.8,0.,4.8
1980-11-15 03:06:35.680 ,4,0,0.,4.8,0.,4.8,0.,4.8,0.,4.8
1980-11-15 03:06:40.480 ,4,0,1.,4.8,0.,4.8,0.,4.8,0.,4.8
1980-11-15 03:06:45.280 ,4,0,1.,4.8,0.,4.8,0.,4.8,0.,4.8
1980-11-15 03:06:50.080 ,4,0,1.,4.8,0.,4.8,0.,4.8,0.,4.8
1980-11-15 03:06:54.880 ,4,0,0.,4.8,0.,4.8,0.,4.8,0.,4.8
1980-11-15 03:06:59.680 ,5,0,0.,4.8,0.,4.8,0.,4.8,0.,4.8
1980-11-15 03:07:04.480 ,5,0,0.,4.8,0.,4.8,0.,4.8,0.,4.8
1980-11-15 03:07:09.280 ,5,0,0.,4.8,0.,4.8,0.,4.8,0.,4.8
1980-11-15 03:07:14.080 ,5,0,0.,4.8,0.,4.8,0.,4.8,0.,4.8
1980-11-15 03:07:18.880 ,5,0,0.,4.8,0.,4.8,0.,4.8,0.,4.8
1980-11-15 03:07:23.680 ,5,0,0.,4.8,0.,4.8,0.,4.8,0.,4.8
1980-11-15 03:07:28.480 ,5,0,0.,4.8,0.,4.8,0.,4.8,0.,4.8
1980-11-15 03:07:33.280 ,5,0,0.,4.8,0.,4.8,0.,4.8,0.,4.8
1980-11-15 03:07:38.080 ,5,0,0.,4.8,0.,4.8,0.,4.8,0.,4.8
1980-11-15 03:07:42.880 ,5,0,0.,4.8,0.,4.8,0.,4.8,0.,4.8
1980-11-15 03:07:47.680 ,6,0,0.,4.8,0.,4.8,0.,4.8,0.,4.8
1980-11-15 03:07:52.480 ,6,0,0.,4.8,0.,4.8,0.,4.8,0.,4.8
1980-11-15 03:07:57.280 ,6,0,0.,4.8,0.,4.8,0.,4.8,0.,4.8
1980-11-15 03:08:02.080 ,6,0,0.,4.8,0.,4.8,0.,4.8,0.,4.8
1980-11-15 03:08:06.880 ,6,0,0.,4.8,0.,4.8,0.,4.8,0.,4.8
1980-11-15 03:08:11.680 ,6,0,0.,4.8,0.,4.8,0.,4.8,0.,4.8
1980-11-15 03:08:16.480 ,6,0,0.,4.8,0.,4.8,0.,4.8,0.,4.8
1980-11-15 03:08:21.280 ,6,0,0.,4.8,0.,4.8,0.,4.8,0.,4.8
1980-11-15 03:08:26.080 ,6,0,2.,4.8,0.,4.8,0.,4.8,0.,4.8
1980-11-15 03:08:30.880 ,6,0,0.,4.8,0.,4.8,0.,4.8,0.,4.8
1980-11-15 03:08:35.680 ,7,0,0.,4.8,0.,4.8,0.,4.8,0.,4.8
1980-11-15 03:08:40.480 ,7,0,1.,4.8,0.,4.8,0.,4.8,0.,4.8
1980-11-15 03:08:45.280 ,7,0,0.,4.8,0.,4.8,0.,4.8,0.,4.8
1980-11-15 03:08:50.080 ,7,0,0.,4.8,1.,4.8,0.,4.8,0.,4.8
1980-11-15 03:08:54.880 ,7,0,1.,4.8,0.,4.8,0.,4.8,0.,4.8
1980-11-15 03:08:59.680 ,7,0,1.,4.8,0.,4.8,0.,4.8,0.,4.8
1980-11-15 03:09:04.480 ,7,0,0.,4.8,0.,4.8,0.,4.8,0.,4.8
1980-11-15 03:09:09.280 ,7,0,0.,4.8,0.,4.8,0.,4.8,0.,4.8
1980-11-15 03:09:14.080 ,7,0,0.,4.8,0.,4.8,0.,4.8,0.,4.8
1980-11-15 03:09:18.880 ,7,0,0.,4.8,0.,4.8,0.,4.8,0.,4.8
1980-11-15 03:09:23.680 ,7,0,1.,4.8,0.,4.8,0.,4.8,0.,4.8
1980-11-15 03:09:28.480 ,7,0,0.,4.8,0.,4.8,0.,4.8,0.,4.8
1980-11-15 03:09:33.280 ,7,0,0.,4.8,0.,4.8,1.,4.8,0.,4.8
1980-11-15 03:09:38.080 ,7,0,0.,4.8,0.,4.8,0.,4.8,0.,4.8
1980-11-15 03:09:42.880 ,7,0,1.,4.8,0.,4.8,0.,4.8,0.,4.8
1980-11-15 03:09:47.680 ,7,0,0.,4.8,0.,4.8,0.,4.8,0.,4.8
1980-11-15 03:09:52.480 ,7,0,0.,4.8,0.,4.8,0.,4.8,0.,4.8
1980-11-15 03:09:57.280 ,7,0,0.,4.8,0.,4.8,0.,4.8,0.,4.8
1980-11-15 03:10:02.080 ,7,0,0.,4.8,0.,4.8,1.,4.8,0.,4.8
1980-11-15 03:10:06.880 ,7,0,2.,4.8,0.,4.8,0.,4.8,0.,4.8
1980-11-15 03:10:11.680 ,6,0,0.,4.8,0.,4.8,0.,4.8,0.,4.8
1980-11-15 03:10:16.480 ,6,0,1.,4.8,0.,4.8,0.,4.8,0.,4.8
1980-11-15 03:10:21.280 ,6,0,1.,4.8,1.,4.8,0.,4.8,0.,4.8
1980-11-15 03:10:26.080 ,6,0,0.,4.8,0.,4.8,0.,4.8,0.,4.8
1980-11-15 03:10:30.880 ,6,0,2.,4.8,0.,4.8,0.,4.8,0.,4.8
1980-11-15 03:10:35.680 ,6,0,0.,4.8,0.,4.8,0.,4.8,0.,4.8
1980-11-15 03:10:40.480 ,6,0,0.,4.8,1.,4.8,0.,4.8,0.,4.8
1980-11-15 03:10:45.280 ,6,0,1.,4.8,0.,4.8,0.,4.8,0.,4.8
1980-11-15 03:10:50.080 ,6,0,2.,4.8,0.,4.8,0.,4.8,0.,4.8
1980-11-15 03:10:54.880 ,6,0,0.,4.8,0.,4.8,0.,4.8,0.,4.8
1980-11-15 03:10:59.680 ,5,0,0.,4.8,0.,4.8,0.,4.8,0.,4.8
1980-11-15 03:11:04.480 ,5,0,0.,4.8,0.,4.8,0.,4.8,0.,4.8
1980-11-15 03:11:09.280 ,5,0,0.,4.8,0.,4.8,0.,4.8,0.,4.8
1980-11-15 03:11:14.080 ,5,0,0.,4.8,0.,4.8,0.,4.8,0.,4.8
1980-11-15 03:11:18.880 ,5,0,0.,4.8,0.,4.8,0.,4.8,0.,4.8
1980-11-15 03:11:23.680 ,5,0,0.,4.8,1.,4.8,0.,4.8,0.,4.8
1980-11-15 03:11:28.480 ,5,0,1.,4.8,0.,4.8,0.,4.8,0.,4.8
1980-11-15 03:11:33.280 ,5,0,1.,4.8,0.,4.8,0.,4.8,0.,4.8
1980-11-15 03:11:38.080 ,5,0,1.,4.8,0.,4.8,0.,4.8,0.,4.8
1980-11-15 03:11:42.880 ,5,0,0.,4.8,0.,4.8,0.,4.8,0.,4.8
1980-11-15 03:11:47.680 ,4,0,0.,4.8,0.,4.8,0.,4.8,0.,4.8
1980-11-15 03:11:52.480 ,4,0,0.,4.8,0.,4.8,0.,4.8,0.,4.8
1980-11-15 03:11:57.280 ,4,0,1.,4.8,0.,4.8,0.,4.8,0.,4.8
1980-11-15 03:12:02.080 ,4,0,0.,4.8,0.,4.8,0.,4.8,0.,4.8
1980-11-15 03:12:06.880 ,4,0,1.,4.8,0.,4.8,0.,4.8,0.,4.8
1980-11-15 03:12:11.680 ,4,0,0.,4.8,0.,4.8,0.,4.8,0.,4.8
1980-11-15 03:12:16.480 ,4,0,0.,4.8,0.,4.8,0.,4.8,0.,4.8
1980-11-15 03:12:21.280 ,4,0,0.,4.8,0.,4.8,0.,4.8,0.,4.8
1980-11-15 03:12:26.080 ,4,0,0.,4.8,0.,4.8,0.,4.8,0.,4.8
1980-11-15 03:12:30.880 ,4,0,0.,4.8,0.,4.8,1.,4.8,0.,4.8
1980-11-15 03:12:35.680 ,3,0,0.,4.8,0.,4.8,0.,4.8,0.,4.8
1980-11-15 03:12:40.480 ,3,0,1.,4.8,0.,4.8,0.,4.8,0.,4.8
1980-11-15 03:12:45.280 ,3,0,0.,4.8,0.,4.8,0.,4.8,0.,4.8
1980-11-15 03:12:50.080 ,3,0,0.,4.8,0.,4.8,0.,4.8,0.,4.8
1980-11-15 03:12:54.880 ,3,0,0.,4.8,1.,4.8,0.,4.8,0.,4.8
1980-11-15 03:12:59.680 ,3,0,0.,4.8,0.,4.8,0.,4.8,0.,4.8
1980-11-15 03:13:04.480 ,3,0,0.,4.8,0.,4.8,0.,4.8,0.,4.8
1980-11-15 03:13:09.280 ,3,0,0.,4.8,0.,4.8,0.,4.8,0.,4.8
1980-11-15 03:13:14.080 ,3,0,0.,4.8,0.,4.8,0.,4.8,0.,4.8
1980-11-15 03:13:18.880 ,3,0,0.,4.8,0.,4.8,0.,4.8,0.,4.8
1980-11-15 03:13:23.680 ,2,0,0.,4.8,0.,4.8,1.,4.8,0.,4.8
1980-11-15 03:13:28.480 ,2,0,0.,4.8,0.,4.8,0.,4.8,0.,4.8
1980-11-15 03:13:33.280 ,2,0,0.,4.8,0.,4.8,0.,4.8,0.,4.8
1980-11-15 03:13:38.080 ,2,0,1.,4.8,0.,4.8,0.,4.8,0.,4.8
1980-11-15 03:13:42.880 ,2,0,0.,4.8,0.,4.8,0.,4.8,0.,4.8
1980-11-15 03:13:47.680 ,2,0,1.,4.8,0.,4.8,0.,4.8,0.,4.8
1980-11-15 03:13:52.480 ,2,0,1.,4.8,0.,4.8,0.,4.8,0.,4.8
1980-11-15 03:13:57.280 ,2,0,0.,4.8,0.,4.8,0.,4.8,0.,4.8
1980-11-15 03:14:02.080 ,2,0,0.,4.8,2.,4.8,0.,4.8,0.,4.8
1980-11-15 03:14:06.880 ,2,0,0.,4.8,0.,4.8,0.,4.8,0.,4.8
1980-11-15 03:14:11.680 ,1,0,1.,4.8,0.,4.8,0.,4.8,0.,4.8
1980-11-15 03:14:16.480 ,1,0,0.,4.8,0.,4.8,0.,4.8,0.,4.8
1980-11-15 03:14:21.280 ,1,0,0.,4.8,0.,4.8,0.,4.8,0.,4.8
1980-11-15 03:14:26.080 ,1,0,0.,4.8,0.,4.8,0.,4.8,0.,4.8
1980-11-15 03:14:30.880 ,1,0,0.,4.8,0.,4.8,1.,4.8,0.,4.8
1980-11-15 03:14:35.680 ,1,0,0.,4.8,0.,4.8,0.,4.8,0.,4.8
1980-11-15 03:14:40.480 ,1,0,0.,4.8,0.,4.8,0.,4.8,0.,4.8
1980-11-15 03:14:45.280 ,1,0,0.,4.8,0.,4.8,0.,4.8,0.,4.8
1980-11-15 03:14:50.080 ,1,0,1.,4.8,0.,4.8,0.,4.8,0.,4.8
1980-11-15 03:14:54.880 ,1,0,0.,4.8,1.,4.8,0.,4.8,0.,4.8
1980-11-15 03:14:59.680 ,0,0,0.,4.8,0.,4.8,0.,4.8,0.,4.8
1980-11-15 03:15:04.480 ,0,0,0.,4.8,1.,4.8,0.,4.8,0.,4.8
1980-11-15 03:15:09.280 ,0,0,1.,4.8,0.,4.8,0.,4.8,0.,4.8
1980-11-15 03:15:14.080 ,0,0,0.,4.8,0.,4.8,0.,4.8,0.,4.8
1980-11-15 03:15:18.880 ,0,0,0.,4.8,0.,4.8,0.,4.8,0.,4.8
1980-11-15 03:15:23.680 ,0,0,0.,4.8,1.,4.8,0.,4.8,0.,4.8
1980-11-15 03:15:28.480 ,0,0,0.,4.8,0.,4.8,0.,4.8,0.,4.8
1980-11-15 03:15:33.280 ,0,0,0.,4.8,0.,4.8,0.,4.8,1.,4.8
1980-11-15 03:15:38.080 ,0,0,0.,4.8,0.,4.8,0.,4.8,0.,4.8
1980-11-15 03:15:42.880 ,0,0,1.,4.8,0.,4.8,0.,4.8,0.,4.8
1980-11-15 03:15:47.680 ,0,0,0.,4.8,0.,4.8,0.,4.8,0.,4.8
1980-11-15 03:15:52.480 ,0,0,0.,4.8,0.,4.8,0.,4.8,0.,4.8
1980-11-15 03:15:57.280 ,0,0,2.,4.8,0.,4.8,0.,4.8,0.,4.8
1980-11-15 03:16:02.080 ,0,0,0.,4.8,0.,4.8,0.,4.8,0.,4.8
1980-11-15 03:16:06.880 ,0,0,2.,4.8,0.,4.8,0.,4.8,0.,4.8
1980-11-15 03:16:11.680 ,0,0,0.,4.8,0.,4.8,0.,4.8,0.,4.8
1980-11-15 03:16:16.480 ,0,0,1.,4.8,0.,4.8,0.,4.8,0.,4.8
1980-11-15 03:16:21.280 ,0,0,0.,4.8,0.,4.8,0.,4.8,0.,4.8
1980-11-15 03:16:26.080 ,0,0,0.,4.8,0.,4.8,0.,4.8,0.,4.8
1980-11-15 03:16:30.880 ,0,0,0.,4.8,0.,4.8,0.,4.8,0.,4.8
1980-11-15 03:16:35.680 ,1,0,0.,4.8,0.,4.8,0.,4.8,0.,4.8
1980-11-15 03:16:40.480 ,1,0,1.,4.8,0.,4.8,0.,4.8,0.,4.8
1980-11-15 03:16:45.280 ,1,0,1.,4.8,0.,4.8,0.,4.8,0.,4.8
1980-11-15 03:16:50.080 ,1,0,1.,4.8,0.,4.8,0.,4.8,0.,4.8
1980-11-15 03:16:54.880 ,1,0,0.,4.8,0.,4.8,0.,4.8,0.,4.8
1980-11-15 03:16:59.680 ,1,0,0.,4.8,0.,4.8,0.,4.8,0.,4.8
1980-11-15 03:17:04.480 ,1,0,2.,4.8,0.,4.8,0.,4.8,0.,4.8
1980-11-15 03:17:09.280 ,1,0,0.,4.8,1.,4.8,0.,4.8,0.,4.8
1980-11-15 03:17:14.080 ,1,0,0.,4.8,0.,4.8,0.,4.8,0.,4.8
1980-11-15 03:17:18.880 ,1,0,1.,4.8,0.,4.8,0.,4.8,0.,4.8
1980-11-15 03:17:23.680 ,2,0,1.,4.8,0.,4.8,0.,4.8,0.,4.8
1980-11-15 03:17:28.480 ,2,0,0.,4.8,0.,4.8,1.,4.8,0.,4.8
1980-11-15 03:17:33.280 ,2,0,0.,4.8,0.,4.8,0.,4.8,0.,4.8
1980-11-15 03:17:38.080 ,2,0,2.,4.8,0.,4.8,0.,4.8,0.,4.8
1980-11-15 03:17:42.880 ,2,0,1.,4.8,1.,4.8,0.,4.8,1.,4.8
1980-11-15 03:17:47.680 ,2,0,1.,4.8,0.,4.8,0.,4.8,0.,4.8
1980-11-15 03:17:52.480 ,2,0,0.,4.8,0.,4.8,1.,4.8,0.,4.8
1980-11-15 03:17:57.280 ,2,0,0.,4.8,0.,4.8,0.,4.8,0.,4.8
1980-11-15 03:18:02.080 ,2,0,0.,4.8,0.,4.8,0.,4.8,0.,4.8
1980-11-15 03:18:06.880 ,2,0,0.,4.8,0.,4.8,0.,4.8,0.,4.8
1980-11-15 03:18:11.680 ,3,0,0.,4.8,0.,4.8,0.,4.8,0.,4.8
1980-11-15 03:18:16.480 ,3,0,1.,4.8,0.,4.8,0.,4.8,0.,4.8
1980-11-15 03:18:21.280 ,3,0,0.,4.8,0.,4.8,0.,4.8,0.,4.8
1980-11-15 03:18:26.080 ,3,0,1.,4.8,0.,4.8,0.,4.8,0.,4.8
1980-11-15 03:18:30.880 ,3,0,0.,4.8,0.,4.8,0.,4.8,0.,4.8
1980-11-15 03:18:35.680 ,3,0,0.,4.8,0.,4.8,0.,4.8,0.,4.8
1980-11-15 03:18:40.480 ,3,0,0.,4.8,0.,4.8,0.,4.8,0.,4.8
1980-11-15 03:18:45.280 ,3,0,0.,4.8,0.,4.8,0.,4.8,0.,4.8
1980-11-15 03:18:50.080 ,3,0,1.,4.8,0.,4.8,0.,4.8,0.,4.8
1980-11-15 03:18:54.880 ,3,0,0.,4.8,0.,4.8,0.,4.8,0.,4.8
1980-11-15 03:18:59.680 ,4,0,0.,4.8,0.,4.8,0.,4.8,0.,4.8
1980-11-15 03:19:04.480 ,4,0,1.,4.8,0.,4.8,0.,4.8,0.,4.8
1980-11-15 03:19:09.280 ,4,0,1.,4.8,0.,4.8,0.,4.8,0.,4.8
1980-11-15 03:19:14.080 ,4,0,0.,4.8,1.,4.8,0.,4.8,0.,4.8
1980-11-15 03:19:18.880 ,4,0,0.,4.8,0.,4.8,0.,4.8,0.,4.8
1980-11-15 03:19:23.680 ,4,0,0.,4.8,0.,4.8,0.,4.8,0.,4.8
1980-11-15 03:19:28.480 ,4,0,0.,4.8,0.,4.8,0.,4.8,0.,4.8
1980-11-15 03:19:33.280 ,4,0,0.,4.8,0.,4.8,0.,4.8,0.,4.8
1980-11-15 03:19:38.080 ,4,0,0.,4.8,0.,4.8,0.,4.8,0.,4.8
1980-11-15 03:19:42.880 ,4,0,0.,4.8,0.,4.8,0.,4.8,0.,4.8
1980-11-15 03:19:47.680 ,5,0,0.,4.8,0.,4.8,0.,4.8,0.,4.8
1980-11-15 03:19:52.480 ,5,0,1.,4.8,0.,4.8,0.,4.8,0.,4.8
1980-11-15 03:19:57.280 ,5,0,0.,4.8,0.,4.8,0.,4.8,0.,4.8
1980-11-15 03:20:02.080 ,5,0,0.,4.8,0.,4.8,0.,4.8,0.,4.8
1980-11-15 03:20:06.880 ,5,0,0.,4.8,0.,4.8,0.,4.8,0.,4.8
1980-11-15 03:20:11.680 ,5,0,1.,4.8,0.,4.8,0.,4.8,0.,4.8
1980-11-15 03:20:16.480 ,5,0,0.,4.8,0.,4.8,0.,4.8,0.,4.8
1980-11-15 03:20:21.280 ,5,0,0.,4.8,0.,4.8,0.,4.8,0.,4.8
1980-11-15 03:20:26.080 ,5,0,0.,4.8,0.,4.8,0.,4.8,0.,4.8
1980-11-15 03:20:30.880 ,5,0,0.,4.8,0.,4.8,0.,4.8,0.,4.8
1980-11-15 03:20:35.680 ,6,0,0.,4.8,1.,4.8,0.,4.8,0.,4.8
1980-11-15 03:20:40.480 ,6,0,0.,4.8,0.,4.8,0.,4.8,0.,4.8
1980-11-15 03:20:45.280 ,6,0,0.,4.8,0.,4.8,0.,4.8,0.,4.8
1980-11-15 03:20:50.080 ,6,0,0.,4.8,0.,4.8,0.,4.8,0.,4.8
1980-11-15 03:20:54.880 ,6,0,1.,4.8,0.,4.8,0.,4.8,0.,4.8
1980-11-15 03:20:59.680 ,6,0,0.,4.8,0.,4.8,0.,4.8,0.,4.8
1980-11-15 03:21:04.480 ,6,0,0.,4.8,0.,4.8,0.,4.8,0.,4.8
1980-11-15 03:21:09.280 ,6,0,0.,4.8,0.,4.8,0.,4.8,0.,4.8
1980-11-15 03:21:14.080 ,6,0,1.,4.8,0.,4.8,0.,4.8,0.,4.8
1980-11-15 03:21:18.880 ,6,0,0.,4.8,0.,4.8,0.,4.8,0.,4.8
1980-11-15 03:21:23.680 ,7,0,0.,4.8,0.,4.8,0.,4.8,0.,4.8
1980-11-15 03:21:28.480 ,7,0,0.,4.8,0.,4.8,0.,4.8,0.,4.8
1980-11-15 03:21:33.280 ,7,0,0.,4.8,0.,4.8,0.,4.8,0.,4.8
1980-11-15 03:21:38.080 ,7,0,1.,4.8,0.,4.8,0.,4.8,0.,4.8
1980-11-15 03:21:42.880 ,7,0,0.,4.8,0.,4.8,0.,4.8,0.,4.8
1980-11-15 03:21:47.680 ,7,0,0.,4.8,0.,4.8,1.,4.8,0.,4.8
1980-11-15 03:21:52.480 ,7,0,0.,4.8,0.,4.8,0.,4.8,0.,4.8
1980-11-15 03:21:57.280 ,7,0,1.,4.8,0.,4.8,0.,4.8,0.,4.8
1980-11-15 03:22:02.080 ,7,0,0.,4.8,0.,4.8,0.,4.8,0.,4.8
1980-11-15 03:22:06.880 ,7,0,0.,4.8,0.,4.8,1.,4.8,0.,4.8
1980-11-15 03:22:11.680 ,7,0,1.,4.8,0.,4.8,0.,4.8,0.,4.8
1980-11-15 03:22:16.480 ,7,0,0.,4.8,0.,4.8,0.,4.8,0.,4.8
1980-11-15 03:22:21.280 ,7,0,1.,4.8,0.,4.8,0.,4.8,0.,4.8
1980-11-15 03:22:26.080 ,7,0,0.,4.8,0.,4.8,0.,4.8,0.,4.8
1980-11-15 03:22:30.880 ,7,0,0.,4.8,0.,4.8,1.,4.8,0.,4.8
1980-11-15 03:22:35.680 ,7,0,0.,4.8,0.,4.8,0.,4.8,0.,4.8
1980-11-15 03:22:40.480 ,7,0,0.,4.8,0.,4.8,0.,4.8,0.,4.8
1980-11-15 03:22:45.280 ,7,0,0.,4.8,0.,4.8,0.,4.8,0.,4.8
1980-11-15 03:22:50.080 ,7,0,0.,4.8,0.,4.8,0.,4.8,0.,4.8
1980-11-15 03:22:54.880 ,7,0,0.,4.8,0.,4.8,0.,4.8,0.,4.8
1980-11-15 03:22:59.680 ,6,0,2.,4.8,0.,4.8,0.,4.8,0.,4.8
1980-11-15 03:23:04.480 ,6,0,0.,4.8,0.,4.8,0.,4.8,0.,4.8
1980-11-15 03:23:09.280 ,6,0,2.,4.8,0.,4.8,0.,4.8,0.,4.8
1980-11-15 03:23:14.080 ,6,0,0.,4.8,0.,4.8,0.,4.8,0.,4.8
1980-11-15 03:23:18.880 ,6,0,0.,4.8,0.,4.8,0.,4.8,0.,4.8
1980-11-15 03:23:23.680 ,6,0,0.,4.8,0.,4.8,0.,4.8,0.,4.8
1980-11-15 03:23:28.480 ,6,0,0.,4.8,0.,4.8,0.,4.8,0.,4.8
1980-11-15 03:23:33.280 ,6,0,0.,4.8,0.,4.8,0.,4.8,0.,4.8
1980-11-15 03:23:38.080 ,6,0,0.,4.8,0.,4.8,0.,4.8,0.,4.8
1980-11-15 03:23:42.880 ,6,0,0.,4.8,0.,4.8,0.,4.8,0.,4.8
1980-11-15 03:23:47.680 ,5,0,0.,4.8,0.,4.8,0.,4.8,0.,4.8
1980-11-15 03:23:52.480 ,5,0,0.,4.8,0.,4.8,0.,4.8,0.,4.8
1980-11-15 03:23:57.280 ,5,0,1.,4.8,0.,4.8,0.,4.8,0.,4.8
1980-11-15 03:24:02.080 ,5,0,1.,4.8,0.,4.8,0.,4.8,0.,4.8
1980-11-15 03:24:06.880 ,5,0,0.,4.8,0.,4.8,0.,4.8,0.,4.8
1980-11-15 03:24:11.680 ,5,0,2.,4.8,0.,4.8,0.,4.8,0.,4.8
1980-11-15 03:24:16.480 ,5,0,1.,4.8,0.,4.8,0.,4.8,0.,4.8
1980-11-15 03:24:21.280 ,5,0,0.,4.8,0.,4.8,0.,4.8,0.,4.8
1980-11-15 03:24:26.080 ,5,0,0.,4.8,0.,4.8,0.,4.8,0.,4.8
1980-11-15 03:24:30.880 ,5,0,0.,4.8,0.,4.8,0.,4.8,0.,4.8
1980-11-15 03:24:35.680 ,4,0,0.,4.8,0.,4.8,0.,4.8,0.,4.8
1980-11-15 03:24:40.480 ,4,0,2.,4.8,0.,4.8,0.,4.8,0.,4.8
1980-11-15 03:24:45.280 ,4,0,0.,4.8,0.,4.8,0.,4.8,0.,4.8
1980-11-15 03:24:50.080 ,4,0,0.,4.8,0.,4.8,1.,4.8,0.,4.8
1980-11-15 03:24:54.880 ,4,0,0.,4.8,0.,4.8,0.,4.8,0.,4.8
1980-11-15 03:24:59.680 ,4,0,0.,4.8,0.,4.8,0.,4.8,0.,4.8
1980-11-15 03:25:04.480 ,4,0,1.,4.8,0.,4.8,0.,4.8,0.,4.8
1980-11-15 03:25:09.280 ,4,0,0.,4.8,0.,4.8,0.,4.8,0.,4.8
1980-11-15 03:25:14.080 ,4,0,0.,4.8,0.,4.8,0.,4.8,0.,4.8
1980-11-15 03:25:18.880 ,4,0,1.,4.8,0.,4.8,0.,4.8,0.,4.8
1980-11-15 03:25:23.680 ,3,0,0.,4.8,0.,4.8,0.,4.8,0.,4.8
1980-11-15 03:25:28.480 ,3,0,0.,4.8,0.,4.8,0.,4.8,0.,4.8
1980-11-15 03:25:33.280 ,3,0,0.,4.8,0.,4.8,0.,4.8,0.,4.8
1980-11-15 03:25:38.080 ,3,0,2.,4.8,0.,4.8,0.,4.8,0.,4.8
1980-11-15 03:25:42.880 ,3,0,0.,4.8,0.,4.8,0.,4.8,0.,4.8
1980-11-15 03:25:47.680 ,3,0,0.,4.8,0.,4.8,0.,4.8,0.,4.8
1980-11-15 03:25:52.480 ,3,0,1.,4.8,0.,4.8,0.,4.8,0.,4.8
1980-11-15 03:25:57.280 ,3,0,0.,4.8,0.,4.8,0.,4.8,0.,4.8
1980-11-15 03:26:02.080 ,3,0,1.,4.8,0.,4.8,0.,4.8,0.,4.8
1980-11-15 03:26:06.880 ,3,0,0.,4.8,0.,4.8,0.,4.8,0.,4.8
1980-11-15 03:26:11.680 ,2,0,0.,4.8,0.,4.8,1.,4.8,0.,4.8
1980-11-15 03:26:16.480 ,2,0,0.,4.8,0.,4.8,0.,4.8,0.,4.8
1980-11-15 03:26:21.280 ,2,0,0.,4.8,0.,4.8,1.,4.8,0.,4.8
1980-11-15 03:26:26.080 ,2,0,0.,4.8,0.,4.8,0.,4.8,0.,4.8
1980-11-15 03:26:30.880 ,2,0,1.,4.8,1.,4.8,0.,4.8,0.,4.8
1980-11-15 03:26:35.680 ,2,0,1.,4.8,0.,4.8,0.,4.8,0.,4.8
1980-11-15 03:26:40.480 ,2,0,0.,4.8,0.,4.8,0.,4.8,1.,4.8
1980-11-15 03:26:45.280 ,2,0,1.,4.8,0.,4.8,0.,4.8,0.,4.8
1980-11-15 03:26:50.080 ,2,0,3.,4.8,0.,4.8,0.,4.8,0.,4.8
1980-11-15 03:26:54.880 ,2,0,2.,4.8,0.,4.8,0.,4.8,0.,4.8
1980-11-15 03:26:59.680 ,1,0,1.,4.8,0.,4.8,0.,4.8,0.,4.8
1980-11-15 03:27:04.480 ,1,0,0.,4.8,0.,4.8,0.,4.8,0.,4.8
1980-11-15 03:27:09.280 ,1,0,0.,4.8,0.,4.8,0.,4.8,0.,4.8
1980-11-15 03:27:14.080 ,1,0,0.,4.8,0.,4.8,0.,4.8,0.,4.8
1980-11-15 03:27:18.880 ,1,0,1.,4.8,0.,4.8,0.,4.8,0.,4.8
1980-11-15 03:27:23.680 ,1,0,0.,4.8,0.,4.8,0.,4.8,0.,4.8
1980-11-15 03:27:28.480 ,1,0,2.,4.8,0.,4.8,0.,4.8,0.,4.8
1980-11-15 03:27:33.280 ,1,0,1.,4.8,0.,4.8,0.,4.8,0.,4.8
1980-11-15 03:27:38.080 ,1,0,2.,4.8,0.,4.8,0.,4.8,0.,4.8
1980-11-15 03:27:42.880 ,1,0,0.,4.8,0.,4.8,0.,4.8,0.,4.8
1980-11-15 03:27:47.680 ,0,0,0.,4.8,0.,4.8,0.,4.8,0.,4.8
1980-11-15 03:27:52.480 ,0,0,0.,4.8,0.,4.8,0.,4.8,0.,4.8
1980-11-15 03:27:57.280 ,0,0,0.,4.8,1.,4.8,0.,4.8,0.,4.8
1980-11-15 03:28:02.080 ,0,0,0.,4.8,0.,4.8,0.,4.8,0.,4.8
1980-11-15 03:28:06.880 ,0,0,0.,4.8,0.,4.8,0.,4.8,0.,4.8
1980-11-15 03:28:11.680 ,0,0,0.,4.8,0.,4.8,0.,4.8,0.,4.8
1980-11-15 03:28:16.480 ,0,0,0.,4.8,0.,4.8,0.,4.8,0.,4.8
1980-11-15 03:28:21.280 ,0,0,1.,4.8,0.,4.8,0.,4.8,0.,4.8
1980-11-15 03:28:26.080 ,0,0,0.,4.8,0.,4.8,0.,4.8,0.,4.8
1980-11-15 03:28:30.880 ,0,0,0.,4.8,0.,4.8,0.,4.8,0.,4.8
1980-11-15 03:28:35.680 ,0,0,0.,4.8,0.,4.8,0.,4.8,0.,4.8
1980-11-15 03:28:40.480 ,0,0,0.,4.8,0.,4.8,0.,4.8,0.,4.8
1980-11-15 03:28:45.280 ,0,0,0.,4.8,0.,4.8,0.,4.8,0.,4.8
1980-11-15 03:28:50.080 ,0,0,1.,4.8,0.,4.8,0.,4.8,0.,4.8
1980-11-15 03:28:54.880 ,0,0,0.,4.8,0.,4.8,1.,4.8,0.,4.8
1980-11-15 03:28:59.680 ,0,0,0.,4.8,0.,4.8,0.,4.8,0.,4.8
1980-11-15 03:29:04.480 ,0,0,0.,4.8,0.,4.8,0.,4.8,0.,4.8
1980-11-15 03:29:09.280 ,0,0,0.,4.8,0.,4.8,0.,4.8,0.,4.8
1980-11-15 03:29:14.080 ,0,0,0.,4.8,0.,4.8,0.,4.8,0.,4.8
1980-11-15 03:29:18.880 ,0,0,1.,4.8,0.,4.8,0.,4.8,0.,4.8
1980-11-15 03:29:23.680 ,1,0,1.,4.8,0.,4.8,0.,4.8,0.,4.8
1980-11-15 03:29:28.480 ,1,0,0.,4.8,0.,4.8,0.,4.8,0.,4.8
1980-11-15 03:29:33.280 ,1,0,0.,4.8,0.,4.8,0.,4.8,0.,4.8
1980-11-15 03:29:38.080 ,1,0,1.,4.8,0.,4.8,0.,4.8,0.,4.8
1980-11-15 03:29:42.880 ,1,0,0.,4.8,0.,4.8,0.,4.8,0.,4.8
1980-11-15 03:29:47.680 ,1,0,0.,4.8,0.,4.8,0.,4.8,0.,4.8
1980-11-15 03:29:52.480 ,1,0,1.,4.8,0.,4.8,1.,4.8,0.,4.8
1980-11-15 03:29:57.280 ,1,0,0.,4.8,0.,4.8,0.,4.8,0.,4.8
1980-11-15 03:30:02.080 ,1,0,1.,4.8,0.,4.8,0.,4.8,0.,4.8
1980-11-15 03:30:06.880 ,1,0,0.,4.8,0.,4.8,0.,4.8,0.,4.8
1980-11-15 03:30:11.680 ,2,0,0.,4.8,0.,4.8,0.,4.8,0.,4.8
1980-11-15 03:30:16.480 ,2,0,0.,4.8,0.,4.8,0.,4.8,0.,4.8
1980-11-15 03:30:21.280 ,2,0,1.,4.8,0.,4.8,0.,4.8,0.,4.8
1980-11-15 03:30:26.080 ,2,0,0.,4.8,0.,4.8,0.,4.8,0.,4.8
1980-11-15 03:30:30.880 ,2,0,0.,4.8,0.,4.8,0.,4.8,0.,4.8
1980-11-15 03:30:35.680 ,2,0,0.,4.8,0.,4.8,0.,4.8,0.,4.8
1980-11-15 03:30:40.480 ,2,0,0.,4.8,0.,4.8,0.,4.8,0.,4.8
1980-11-15 03:30:45.280 ,2,0,1.,4.8,0.,4.8,0.,4.8,0.,4.8
1980-11-15 03:30:50.080 ,2,0,1.,4.8,0.,4.8,1.,4.8,0.,4.8
1980-11-15 03:30:54.880 ,2,0,0.,4.8,0.,4.8,0.,4.8,0.,4.8
1980-11-15 03:30:59.680 ,3,0,0.,4.8,0.,4.8,0.,4.8,0.,4.8
1980-11-15 03:31:04.480 ,3,0,0.,4.8,0.,4.8,0.,4.8,0.,4.8
1980-11-15 03:31:09.280 ,3,0,0.,4.8,0.,4.8,0.,4.8,0.,4.8
1980-11-15 03:31:14.080 ,3,0,0.,4.8,0.,4.8,0.,4.8,0.,4.8
1980-11-15 03:31:18.880 ,3,0,0.,4.8,0.,4.8,0.,4.8,0.,4.8
1980-11-15 03:31:23.680 ,3,0,0.,4.8,0.,4.8,0.,4.8,0.,4.8
1980-11-15 03:31:28.480 ,3,0,0.,4.8,0.,4.8,0.,4.8,0.,4.8
1980-11-15 03:31:33.280 ,3,0,2.,4.8,0.,4.8,0.,4.8,0.,4.8
1980-11-15 03:31:38.080 ,3,0,0.,4.8,0.,4.8,0.,4.8,0.,4.8
1980-11-15 03:31:42.880 ,3,0,0.,4.8,0.,4.8,0.,4.8,0.,4.8
1980-11-15 03:31:47.680 ,4,0,0.,4.8,0.,4.8,0.,4.8,0.,4.8
1980-11-15 03:31:52.480 ,4,0,0.,4.8,0.,4.8,0.,4.8,0.,4.8
1980-11-15 03:31:57.280 ,4,0,0.,4.8,0.,4.8,0.,4.8,0.,4.8
1980-11-15 03:32:02.080 ,4,0,0.,4.8,0.,4.8,0.,4.8,0.,4.8
1980-11-15 03:32:06.880 ,4,0,2.,4.8,0.,4.8,1.,4.8,0.,4.8
1980-11-15 03:32:11.680 ,4,0,1.,4.8,0.,4.8,0.,4.8,0.,4.8
1980-11-15 03:32:16.480 ,4,0,0.,4.8,0.,4.8,0.,4.8,0.,4.8
1980-11-15 03:32:21.280 ,4,0,0.,4.8,0.,4.8,0.,4.8,0.,4.8
1980-11-15 03:32:26.080 ,4,0,1.,4.8,0.,4.8,0.,4.8,0.,4.8
1980-11-15 03:32:30.880 ,4,0,1.,4.8,1.,4.8,0.,4.8,0.,4.8
1980-11-15 03:32:35.680 ,5,0,1.,4.8,0.,4.8,0.,4.8,0.,4.8
1980-11-15 03:32:40.480 ,5,0,2.,4.8,0.,4.8,0.,4.8,0.,4.8
1980-11-15 03:32:45.280 ,5,0,1.,4.8,0.,4.8,0.,4.8,0.,4.8
1980-11-15 03:32:50.080 ,5,0,1.,4.8,0.,4.8,0.,4.8,0.,4.8
1980-11-15 03:32:54.880 ,5,0,1.,4.8,0.,4.8,1.,4.8,0.,4.8
1980-11-15 03:32:59.680 ,5,0,1.,4.8,0.,4.8,0.,4.8,0.,4.8
1980-11-15 03:33:04.480 ,5,0,0.,4.8,0.,4.8,0.,4.8,0.,4.8